OpenBCM V1.13 (Linux)

Packet Radio Mailbox

DB0FHN

[JN59NK Nuernberg]

 Login: GUEST





  
CX2SA  > KEPS     07.12.12 04:54l 220 Lines 5764 Bytes #999 (0) @ WW
BID : ORB12341.W
Read: DK3UZ GUEST
Subj: Orbital Elements  12341.WEATHER
Path: DB0FHN<DB0FOR<DB0SIF<DB0EAM<DB0RES<IK2XDE<IZ3LSV<IQ5KG<IK1NHL<CX2SA
Sent: 121207/0244Z @:CX2SA.SAL.URY.SA #:244 [Salto] FBB7.00e $:ORB12341.W
From: CX2SA@CX2SA.SAL.URY.SA
To  : KEPS@AMSAT


HR AMSAT ORBITAL ELEMENTS FOR WEATHER SATELLITES
FROM WA5QGD FORT WORTH,TX December 6, 2012
BID: ORB12341.W
TO ALL RADIO AMATEURS BT

Satellite: NOAA-10
Catalog number: 16969
Epoch time:      12341.15794559
Element set:     162
Inclination:      098.5654 deg
RA of node:       007.0146 deg
Eccentricity:    0.0013141
Arg of perigee:   090.8308 deg
Mean anomaly:     269.4376 deg
Mean motion:   14.27600307 rev/day
Decay rate:        9.8e-07 rev/day^2
Epoch rev:           36440
Checksum:              302

Satellite: NOAA-11
Catalog number: 19531
Epoch time:      12341.18698803
Element set:     155
Inclination:      098.7237 deg
RA of node:       062.6576 deg
Eccentricity:    0.0012025
Arg of perigee:   091.7430 deg
Mean anomaly:     268.5112 deg
Mean motion:   14.14994326 rev/day
Decay rate:       -4.9e-07 rev/day^2
Epoch rev:           24883
Checksum:              306

Satellite: NOAA-12
Catalog number: 21263
Epoch time:      12341.29295047
Element set:     636
Inclination:      098.7162 deg
RA of node:       002.0473 deg
Eccentricity:    0.0014721
Arg of perigee:   061.8514 deg
Mean anomaly:     298.4151 deg
Mean motion:   14.25535095 rev/day
Decay rate:        4.5e-07 rev/day^2
Epoch rev:           12107
Checksum:              270

Satellite: MET-3/5
Catalog number: 21655
Epoch time:      12340.83634477
Element set:     566
Inclination:      082.5569 deg
RA of node:       030.9140 deg
Eccentricity:    0.0012358
Arg of perigee:   250.3466 deg
Mean anomaly:     109.6323 deg
Mean motion:   13.17046533 rev/day
Decay rate:      -3.49e-06 rev/day^2
Epoch rev:            2448
Checksum:              295

Satellite: MET-2/21
Catalog number: 22782
Epoch time:      12341.32952962
Element set:     602
Inclination:      082.5484 deg
RA of node:       255.9212 deg
Eccentricity:    0.0023523
Arg of perigee:   033.3725 deg
Mean anomaly:     326.8912 deg
Mean motion:   13.83696156 rev/day
Decay rate:        9.4e-07 rev/day^2
Epoch rev:           97297
Checksum:              315

Satellite: OKEAN-4
Catalog number: 23317
Epoch time:      12340.90877658
Element set:      75
Inclination:      082.5409 deg
RA of node:       230.6187 deg
Eccentricity:    0.0022057
Arg of perigee:   139.8688 deg
Mean anomaly:     220.4161 deg
Mean motion:   14.84145908 rev/day
Decay rate:       5.52e-06 rev/day^2
Epoch rev:           98027
Checksum:              314

Satellite: NOAA-14
Catalog number: 23455
Epoch time:      12341.36425678
Element set:     117
Inclination:      098.8195 deg
RA of node:       062.6182 deg
Eccentricity:    0.0009176
Arg of perigee:   181.6630 deg
Mean anomaly:     178.4514 deg
Mean motion:   14.13884645 rev/day
Decay rate:        3.0e-08 rev/day^2
Epoch rev:           92512
Checksum:              306

Satellite: NOAA-15
Catalog number: 25338
Epoch time:      12340.99959465
Element set:     514
Inclination:      098.7067 deg
RA of node:       326.4427 deg
Eccentricity:    0.0010407
Arg of perigee:   334.0012 deg
Mean anomaly:     026.0659 deg
Mean motion:   14.25154819 rev/day
Decay rate:       1.33e-06 rev/day^2
Epoch rev:           75732
Checksum:              302

Satellite: RESURS
Catalog number: 25394
Epoch time:      12341.02296452
Element set:     251
Inclination:      098.3373 deg
RA of node:       320.3719 deg
Eccentricity:    0.0002339
Arg of perigee:   085.7710 deg
Mean anomaly:     274.3737 deg
Mean motion:   14.24311857 rev/day
Decay rate:        1.4e-07 rev/day^2
Epoch rev:           74886
Checksum:              292

Satellite: FENGYUN1
Catalog number: 25730
Epoch time:      12341.46934986
Element set:     756
Inclination:      098.8602 deg
RA of node:       297.6070 deg
Eccentricity:    0.0020491
Arg of perigee:   231.1271 deg
Mean anomaly:     128.8070 deg
Mean motion:   14.09906646 rev/day
Decay rate:      1.021e-05 rev/day^2
Epoch rev:           69888
Checksum:              315

Satellite: OKEAN-0
Catalog number: 25860
Epoch time:      12340.90311235
Element set:     807
Inclination:      097.9605 deg
RA of node:       300.2855 deg
Eccentricity:    0.0001972
Arg of perigee:   065.5510 deg
Mean anomaly:     294.5904 deg
Mean motion:   14.74414683 rev/day
Decay rate:       2.88e-06 rev/day^2
Epoch rev:           71987
Checksum:              305

Satellite: NOAA-16
Catalog number: 26536
Epoch time:      12341.06298282
Element set:     995
Inclination:      099.0718 deg
RA of node:       025.6496 deg
Eccentricity:    0.0009980
Arg of perigee:   323.0639 deg
Mean anomaly:     036.9874 deg
Mean motion:   14.12813525 rev/day
Decay rate:       -3.4e-07 rev/day^2
Epoch rev:           62930
Checksum:              326

Satellite: NOAA-17
Catalog number: 27453
Epoch time:      12341.39449183
Element set:     937
Inclination:      098.3225 deg
RA of node:       359.6179 deg
Eccentricity:    0.0011981
Arg of perigee:   016.1979 deg
Mean anomaly:     343.9586 deg
Mean motion:   14.24517307 rev/day
Decay rate:        6.2e-07 rev/day^2
Epoch rev:           54327
Checksum:              334

Satellite: NOAA-18
Catalog number: 28654
Epoch time:      12341.36485412
Element set:     420
Inclination:      099.0720 deg
RA of node:       301.0985 deg
Eccentricity:    0.0014883
Arg of perigee:   032.9834 deg
Mean anomaly:     327.2260 deg
Mean motion:   14.11742882 rev/day
Decay rate:       2.84e-06 rev/day^2
Epoch rev:           38885
Checksum:              306

Satellite: NOAA-19
Catalog number: 33591
Epoch time:      12341.34054019
Element set:     605
Inclination:      098.8823 deg
RA of node:       279.1343 deg
Eccentricity:    0.0013240
Arg of perigee:   254.9691 deg
Mean anomaly:     105.0021 deg
Mean motion:   14.11427426 rev/day
Decay rate:       -2.5e-07 rev/day^2
Epoch rev:           19729
Checksum:              280



Read previous mail | Read next mail


 28.07.2026 00:54:59lGo back Go up